Date,TemperatureHighF,TemperatureAvgF,TemperatureLowF,DewpointHighF,DewpointAvgF,DewpointLowF,HumidityHigh,HumidityAvg,HumidityLow,PressureMaxIn,PressureMinIn,WindSpeedMaxMPH,WindSpeedAvgMPH,GustSpeedMaxMPH,PrecipitationSumIn
2013-1-1,31.5,29.0,22.6,30.1,26.2,19.7,95,89,78,30.22,30.10,4,1,5,0.06
2013-1-2,24.3,17.1,8.5,19.9,10.8,5.2,92,78,45,30.34,30.21,3,0,4,0.00
2013-1-3,31.9,21.7,6.3,24.2,14.8,2.3,85,75,60,30.40,30.30,8,2,13,0.02
2013-1-4,32.8,28.0,21.1,24.6,21.4,17.5,87,76,62,30.42,30.36,9,4,16,0.02
2013-1-5,39.8,30.3,19.6,27.4,23.9,17.1,92,78,57,30.42,30.22,5,2,9,0.05
2013-1-6,36.7,31.9,25.7,31.9,26.9,21.0,88,82,76,30.42,30.08,9,4,14,0.00
2013-1-7,37.9,27.3,17.2,27.2,22.5,15.3,93,83,64,30.53,30.32,6,1,7,0.00
2013-1-8,47.3,34.1,23.3,34.2,27.9,20.9,91,79,60,30.38,30.27,5,1,8,0.00
2013-1-9,51.1,42.4,33.4,41.8,36.3,30.1,95,80,59,30.55,30.27,7,2,10,0.05
2013-1-10,42.2,35.8,28.9,38.9,32.8,27.1,95,89,78,30.57,30.15,12,5,14,0.04
2013-1-11,59.4,51.8,42.3,53.2,48.0,38.9,96,87,72,30.15,29.92,10,4,13,0.59
2013-1-12,63.6,57.5,49.4,60.9,54.9,46.3,95,91,81,30.04,29.78,10,4,13,0.15
2013-1-13,63.4,48.9,29.4,60.5,47.1,27.1,96,94,89,30.18,29.70,12,4,17,1.05
2013-1-14,29.4,23.4,20.3,26.3,20.2,17.8,92,87,83,30.52,30.18,6,3,10,0.00
2013-1-15,29.9,26.0,21.3,25.4,22.1,18.8,91,85,78,30.45,30.17,7,3,9,0.00
2013-1-16,33.7,30.9,28.9,27.5,25.5,22.8,90,80,67,30.17,30.05,6,2,8,0.00
2013-1-17,41.6,32.3,25.2,31.9,25.3,17.4,87,76,61,30.47,30.14,8,3,10,0.00
2013-1-18,39.7,28.8,17.3,26.9,19.4,13.2,89,69,45,30.59,30.28,7,3,11,0.00
2013-1-19,52.6,43.5,36.7,32.5,28.2,25.3,66,55,41,30.28,29.95,10,7,15,0.00
2013-1-20,45.5,31.5,24.2,36.3,17.8,11.4,76,57,43,30.28,29.96,9,5,17,0.00
2013-1-21,24.0,18.6,9.9,15.7,8.7,-2.0,81,65,49,30.33,30.17,13,5,17,0.00
2013-1-22,17.5,11.5,4.2,1.4,-0.4,-2.3,80,59,43,30.49,30.33,9,4,12,0.00
2013-1-23,21.5,16.4,9.4,11.9,4.9,0.9,74,60,51,30.45,30.18,5,2,7,0.00
2013-1-24,22.5,18.2,12.7,12.7,5.5,-0.2,80,58,37,30.67,30.19,9,5,17,0.00
2013-1-25,24.9,20.8,17.3,20.8,14.9,7.8,90,78,59,30.52,30.12,10,4,12,0.00
2013-1-26,30.7,22.6,16.9,19.5,16.9,13.4,91,79,61,30.51,30.20,4,1,6,0.03
2013-1-27,35.1,26.3,18.3,33.5,22.1,14.9,94,84,69,30.51,30.21,10,5,10,0.04
2013-1-28,51.9,46.6,35.5,50.7,44.7,33.5,96,93,85,30.21,30.06,9,5,16,0.31
2013-1-29,63.0,57.0,49.8,58.4,53.7,48.1,96,89,84,30.08,29.56,12,5,17,0.00
2013-1-30,64.8,49.7,29.6,59.1,46.1,25.1,95,88,80,29.60,29.29,11,7,19,1.02
2013-1-31,29.5,24.4,12.2,24.6,18.5,6.4,92,78,62,30.13,29.60,13,8,27,0.00
2013-2-1,14.5,9.5,4.4,6.7,3.0,-1.7,84,75,66,30.50,30.13,9,4,15,0.00
2013-2-2,28.1,21.7,11.0,24.5,18.2,6.1,91,86,78,30.42,30.08,8,3,10,0.05
2013-2-3,25.9,18.6,14.1,22.8,14.3,8.8,91,83,75,30.20,30.02,7,4,10,0.00
2013-2-4,35.0,27.0,14.7,32.3,23.6,12.6,95,87,67,30.19,29.89,7,3,9,0.08
2013-2-5,36.0,30.8,22.1,31.9,27.4,19.9,95,87,81,30.08,29.91,6,2,9,0.02
2013-2-6,35.1,31.3,26.4,31.5,26.8,23.3,89,83,76,30.32,30.08,5,2,7,0.00
2013-2-7,55.8,39.7,28.0,39.9,32.2,25.2,90,76,51,30.27,29.85,6,3,7,0.00
2013-2-8,46.1,33.8,28.0,43.4,29.7,23.1,92,85,78,30.39,29.85,9,5,15,0.10
2013-2-9,39.2,30.4,21.6,24.5,21.7,18.1,87,71,47,30.49,30.27,8,4,9,0.00
2013-2-10,53.0,41.2,29.0,46.2,32.9,22.2,94,73,52,30.27,29.83,13,5,14,0.03
2013-2-11,50.8,44.0,35.9,48.6,35.2,28.3,94,72,55,30.08,29.78,14,8,27,0.01
2013-2-12,47.7,36.3,26.0,30.2,26.6,23.3,91,69,41,30.19,29.97,6,2,10,0.00
2013-2-13,39.3,31.7,27.7,29.3,27.3,25.4,92,84,63,29.97,29.84,5,2,7,0.02
2013-2-14,50.4,38.4,31.3,38.6,33.0,29.0,93,82,60,30.04,29.87,10,4,18,0.00
2013-2-15,36.7,31.0,23.0,32.2,26.4,18.9,91,83,73,30.22,30.03,9,2,16,0.01
2013-2-16,26.2,21.6,17.5,19.0,15.0,9.2,92,76,57,30.21,30.12,8,3,13,0.00
2013-2-17,29.9,20.8,11.0,14.9,10.5,5.8,91,67,36,30.33,30.19,6,2,9,0.01
2013-2-18,57.9,39.9,23.5,40.9,26.5,9.1,89,59,44,30.28,29.75,11,6,16,0.15
2013-2-19,44.6,30.1,22.2,41.7,24.3,13.9,92,79,66,30.18,29.68,13,9,21,0.12
2013-2-20,25.7,20.9,15.9,16.3,12.8,9.4,81,71,60,30.39,30.18,10,5,12,0.00
2013-2-21,30.0,24.1,19.1,25.7,18.7,13.1,91,80,70,30.43,30.12,17,5,18,0.00
2013-2-22,38.6,32.8,28.0,35.4,30.7,25.7,95,92,88,30.14,29.95,11,2,11,0.04
2013-2-23,38.8,32.5,27.3,31.0,26.0,22.5,95,78,59,30.06,29.97,6,2,9,0.01
2013-2-24,39.8,30.5,23.6,27.2,23.6,20.0,89,76,58,30.21,30.00,6,2,8,0.00
2013-2-25,43.8,33.9,24.4,28.5,25.0,20.6,87,71,52,30.23,29.95,12,4,14,0.00
2013-2-26,44.0,38.7,32.9,42.7,34.9,25.7,95,87,68,29.95,29.42,11,6,17,0.86
2013-2-27,41.4,35.1,31.2,39.0,32.5,29.0,94,90,85,29.76,29.55,10,6,15,0.03
2013-2-28,35.2,32.8,30.7,32.3,30.5,28.2,94,91,88,30.01,29.74,8,4,12,0.06
2013-3-1,34.3,31.9,28.2,32.5,29.4,23.5,95,91,82,30.11,29.99,5,2,8,0.05
2013-3-2,28.1,26.6,24.9,23.6,21.5,20.3,87,81,75,30.15,30.09,7,4,12,0.00
2013-3-3,30.1,26.7,20.4,23.4,20.0,17.5,89,76,64,30.16,30.12,6,3,10,0.00
2013-3-4,39.5,29.5,16.7,27.7,21.8,14.7,93,74,52,30.23,30.05,8,3,10,0.01
2013-3-5,36.3,34.2,29.1,34.0,30.4,27.1,95,86,71,30.07,29.66,11,6,13,0.20
2013-3-6,31.2,29.1,26.6,28.4,27.0,24.5,100,92,89,30.33,29.72,7,4,13,0.17
2013-3-7,35.6,31.6,28.8,30.8,28.0,25.7,94,87,74,30.45,30.32,4,2,5,0.15
2013-3-8,41.3,32.4,22.6,28.9,25.4,20.8,93,76,59,30.54,30.44,7,1,7,0.01
2013-3-9,53.5,41.7,29.1,37.2,31.6,24.9,87,69,50,30.44,30.06,12,4,13,0.00
2013-3-10,65.6,57.0,49.5,42.1,37.5,34.0,64,49,32,30.05,29.83,10,5,16,0.01
2013-3-11,57.3,47.1,35.5,50.8,43.5,31.4,95,87,59,29.89,29.63,11,7,18,1.16
2013-3-12,43.4,35.9,31.6,31.3,28.9,25.6,92,77,56,30.10,29.89,9,5,13,0.10
2013-3-13,31.7,27.8,24.1,29.6,23.4,18.3,93,84,66,30.38,30.06,8,4,15,0.00
2013-3-14,41.5,30.4,20.0,29.2,21.2,17.2,89,71,41,30.43,30.23,6,2,9,0.06
2013-3-15,50.3,37.5,27.6,39.7,32.3,25.8,94,82,62,30.24,29.83,5,2,8,0.01
2013-3-16,56.3,45.4,36.2,51.2,41.5,34.6,94,86,72,30.06,29.65,12,4,13,0.28
2013-3-17,36.1,33.9,31.9,34.5,29.6,27.6,94,84,79,30.19,30.05,10,5,15,0.00
2013-3-18,49.1,38.2,32.3,47.4,36.1,30.1,96,92,86,30.05,29.66,17,6,17,0.34
2013-3-19,40.8,34.1,25.8,34.2,22.6,15.9,90,64,38,30.17,29.87,14,8,24,0.75
2013-3-20,33.3,29.2,23.0,22.0,17.3,11.2,78,61,48,30.16,30.03,10,5,18,0.02
2013-3-21,30.9,24.2,17.9,18.0,12.8,9.5,83,62,49,30.11,30.01,7,3,10,0.04
2013-3-22,43.0,30.0,18.9,21.1,16.7,13.5,82,60,34,30.15,30.06,5,1,8,0.03
2013-3-23,49.5,37.1,28.2,27.5,24.6,21.2,84,63,36,30.12,29.93,5,1,5,0.00
2013-3-24,37.0,32.9,30.5,30.4,28.0,23.8,95,83,59,29.94,29.46,8,4,13,0.07
2013-3-25,32.9,30.1,27.6,30.6,28.3,25.8,95,93,91,30.02,29.48,6,3,11,0.22
2013-3-26,37.0,33.0,30.1,30.2,27.9,25.1,93,82,66,30.31,30.03,6,3,11,0.33
2013-3-27,40.9,34.3,27.5,30.1,26.3,23.1,92,73,57,30.38,30.30,6,3,10,0.01
2013-3-28,47.3,36.1,26.1,31.0,25.7,20.8,83,67,49,30.42,30.34,5,2,8,0.00
2013-3-29,53.9,40.6,26.4,34.3,29.4,23.9,91,67,40,30.39,30.25,5,1,7,0.00
2013-3-30,58.6,44.7,29.6,36.7,32.3,27.0,91,65,36,30.28,29.98,7,2,8,0.00
2013-3-31,56.4,49.0,44.0,46.5,42.0,36.7,95,78,59,29.98,29.81,8,3,10,0.09
2013-4-1,48.0,40.4,33.1,41.9,26.7,17.9,83,60,39,30.17,29.83,8,4,19,0.00
2013-4-2,44.4,33.1,22.5,22.4,18.7,15.0,87,58,32,30.33,30.18,7,2,11,0.00
2013-4-3,46.3,32.8,22.4,22.0,17.8,14.2,83,56,32,30.48,30.32,6,2,10,0.00
2013-4-4,55.0,42.2,31.2,23.9,19.7,16.8,61,43,22,30.40,30.04,10,2,11,0.00
2013-4-5,58.2,45.2,32.1,38.0,28.2,21.6,73,53,32,30.18,30.03,7,2,11,0.00
2013-4-6,65.1,50.6,37.4,39.5,31.6,25.7,68,50,33,30.23,29.93,12,5,13,0.00
2013-4-7,71.1,63.5,55.7,53.2,45.8,38.0,87,54,41,30.00,29.86,8,4,12,0.01
2013-4-8,71.1,61.0,53.2,57.4,53.5,50.5,93,78,59,30.00,29.88,9,4,12,0.05
2013-4-9,78.0,68.2,55.6,60.8,56.4,51.3,86,67,48,30.05,29.92,12,4,21,0.00
2013-4-10,81.3,71.7,63.1,65.7,61.2,57.9,84,70,52,29.96,29.77,9,4,17,0.00
2013-4-11,64.3,61.3,58.1,61.0,58.3,56.3,95,90,81,29.79,29.54,14,4,18,0.42
2013-4-12,58.0,44.2,38.6,56.6,37.6,30.6,95,78,65,29.96,29.53,9,6,17,0.14
2013-4-13,55.7,44.6,37.1,38.0,35.0,33.0,87,70,46,30.07,29.96,10,4,17,0.08
2013-4-14,69.3,52.8,38.1,47.0,40.4,33.3,86,65,40,30.09,29.89,9,4,10,0.06
2013-4-15,68.4,60.5,51.9,55.8,51.3,44.8,84,72,61,29.99,29.91,7,3,13,0.02
2013-4-16,77.3,62.1,54.7,64.9,56.9,51.5,95,84,61,30.20,29.95,10,3,13,0.54
2013-4-17,75.3,61.1,50.8,67.2,57.6,49.4,96,89,73,30.21,29.96,9,4,10,0.33
2013-4-18,79.4,70.7,61.1,65.6,59.4,53.6,89,70,47,29.96,29.58,13,6,15,0.00
2013-4-19,71.9,44.3,37.4,59.7,36.8,29.3,92,76,55,30.01,29.49,11,7,20,0.82
2013-4-20,47.2,39.8,33.4,33.6,29.7,25.4,90,68,44,30.45,30.01,9,4,13,0.00
2013-4-21,53.7,42.8,31.5,33.8,28.2,23.0,79,58,39,30.58,30.42,9,3,13,0.00
2013-4-22,67.9,52.6,36.2,42.2,34.5,27.5,73,52,31,30.42,30.15,6,2,10,0.00
2013-4-23,68.1,58.8,47.2,54.1,47.6,40.4,78,67,54,30.17,29.86,7,3,13,0.02
2013-4-24,63.9,47.1,36.4,55.1,42.2,33.6,94,84,64,30.26,29.79,8,4,13,0.75
2013-4-25,56.7,44.3,33.1,40.2,33.8,29.8,93,69,42,30.42,30.25,9,3,15,0.00
2013-4-26,60.5,47.4,31.2,41.5,33.3,28.3,90,61,32,30.50,30.37,7,2,9,0.00
2013-4-27,61.5,52.4,40.6,50.9,42.4,32.9,85,70,50,30.39,30.06,8,3,11,0.00
2013-4-28,64.0,57.8,53.8,58.8,53.9,50.9,93,87,70,30.06,29.85,8,4,10,0.09
2013-4-29,64.0,57.3,52.0,56.4,53.6,49.7,95,88,68,30.03,29.91,4,1,7,0.02
2013-4-30,76.7,62.3,48.0,59.6,52.7,46.5,100,74,42,30.07,29.98,7,2,8,0.01
2013-5-1,81.6,68.3,52.8,60.3,55.3,49.6,91,66,41,30.17,30.07,8,2,9,0.00
2013-5-2,72.3,66.0,58.7,57.6,54.4,51.2,78,67,55,30.20,30.09,7,3,11,0.00
2013-5-3,74.9,66.1,59.1,60.1,54.3,42.4,84,67,44,30.09,29.94,12,6,18,0.00
2013-5-4,70.2,61.2,54.4,51.2,46.4,40.8,88,60,43,30.01,29.93,11,6,14,0.02
2013-5-5,55.0,53.0,50.3,51.3,49.8,47.8,94,89,79,30.01,29.95,9,3,13,0.91
2013-5-6,62.6,56.9,52.2,57.4,53.5,49.4,94,88,79,29.98,29.92,11,5,15,0.61
2013-5-7,71.5,61.2,55.0,58.2,55.4,53.1,95,82,57,30.01,29.93,5,1,7,0.04
2013-5-8,76.4,62.6,51.2,59.8,55.3,50.1,97,79,48,30.03,29.95,5,2,11,0.01
2013-5-9,78.7,65.3,56.0,59.9,55.7,52.5,94,74,41,30.03,29.92,8,2,11,0.19
2013-5-10,67.2,62.2,56.4,62.6,59.7,54.4,95,91,84,29.96,29.82,5,2,6,1.17
2013-5-11,58.6,50.9,44.5,53.9,47.5,40.9,95,88,74,30.04,29.88,8,3,9,0.01
2013-5-12,53.6,45.7,37.1,40.6,34.7,29.4,94,68,42,30.16,30.04,7,3,12,0.00
2013-5-13,60.2,49.2,35.1,39.5,34.0,29.6,94,60,32,30.23,30.15,7,2,11,0.00
2013-5-14,80.6,63.0,44.4,59.4,47.9,34.2,74,59,44,30.18,29.84,8,3,17,0.00
2013-5-15,84.6,75.8,66.9,63.0,59.6,57.8,74,58,44,29.89,29.81,9,6,16,0.00
2013-5-16,75.4,69.2,61.4,66.6,61.2,57.5,92,76,60,29.98,29.83,7,3,10,0.07
2013-5-17,78.7,65.2,58.0,66.9,61.4,56.6,96,89,59,30.07,29.98,6,2,11,0.19
2013-5-18,76.9,67.4,62.4,66.9,63.4,61.2,96,88,68,30.07,29.97,9,2,9,0.03
2013-5-19,81.5,70.4,61.0,69.2,64.7,59.6,97,83,62,30.01,29.89,5,1,7,0.00
2013-5-20,83.0,74.0,66.2,72.3,67.9,64.7,95,82,62,29.99,29.87,5,2,9,0.00
2013-5-21,81.4,72.7,62.2,66.2,63.9,58.9,92,75,56,29.96,29.77,8,3,13,0.03
2013-5-22,75.1,68.0,63.1,66.9,62.7,60.4,93,84,66,29.83,29.74,7,2,9,0.05
2013-5-23,65.8,60.3,51.5,61.9,56.4,48.1,95,87,72,30.12,29.80,8,3,13,0.04
2013-5-24,63.5,54.0,45.8,47.6,43.8,39.1,91,71,43,30.36,30.12,6,2,9,0.01
2013-5-25,63.9,52.9,41.1,50.7,44.5,39.2,94,75,48,30.42,30.25,7,1,9,0.00
2013-5-26,67.7,59.4,51.9,53.2,49.3,45.5,91,71,51,30.33,30.19,6,2,8,0.00
2013-5-27,80.9,66.9,53.2,66.1,56.0,48.1,91,70,47,30.21,29.94,10,4,11,0.32
2013-5-28,81.9,74.0,65.2,67.7,62.8,58.8,84,69,52,30.00,29.91,9,4,13,0.00
2013-5-29,84.1,75.5,68.3,65.5,61.4,58.5,82,63,43,30.06,29.98,7,3,11,0.00
2013-5-30,84.3,74.5,65.3,72.8,66.5,62.1,90,77,59,30.12,29.99,7,2,12,0.06
2013-5-31,78.2,71.6,68.1,69.6,66.6,63.7,94,85,70,30.04,29.92,7,3,11,0.45
2013-6-1,76.1,70.5,64.6,68.4,66.2,62.3,94,86,74,29.96,29.78,8,3,12,0.04
2013-6-2,72.9,67.7,62.0,64.3,61.0,56.8,91,80,67,29.95,29.82,6,3,10,0.00
2013-6-3,67.0,59.8,52.1,56.7,52.2,48.5,90,77,61,30.08,29.95,6,2,9,0.00
2013-6-4,72.9,61.6,48.3,50.4,47.1,41.9,94,63,34,30.17,30.07,9,3,12,0.00
2013-6-5,79.4,68.0,56.5,61.3,55.3,46.9,80,65,51,30.10,29.87,6,2,8,0.00
2013-6-6,70.9,64.8,61.6,65.5,61.7,59.5,95,90,81,29.88,29.78,3,1,4,0.97
2013-6-7,74.6,64.2,56.9,61.7,58.3,55.3,95,82,60,29.90,29.82,4,1,8,0.00
2013-6-8,71.8,64.0,56.4,63.7,59.2,53.7,93,85,74,30.04,29.89,5,1,7,0.13
2013-6-9,78.9,69.0,60.6,67.5,63.1,58.7,95,83,56,30.07,29.90,11,3,15,0.01
2013-6-10,74.7,67.2,64.0,67.8,63.6,61.4,95,88,69,29.90,29.80,6,3,11,0.61
2013-6-11,82.8,72.2,62.7,69.2,64.5,60.4,93,78,56,29.99,29.87,5,2,8,0.00
2013-6-12,88.4,79.6,69.3,75.4,71.5,66.1,92,77,60,29.93,29.71,5,2,9,0.00
2013-6-13,80.9,72.9,63.5,73.4,64.1,53.5,94,75,54,29.94,29.60,8,4,10,0.81
2013-6-14,78.5,67.4,55.0,62.8,57.6,52.3,91,72,51,30.07,29.92,4,1,6,0.00
2013-6-15,81.0,69.8,56.0,65.8,60.8,54.0,94,74,53,30.13,29.95,6,1,8,0.00
2013-6-16,74.0,70.6,66.6,68.0,65.3,62.7,93,84,74,30.02,29.94,7,2,7,0.04
2013-6-17,85.9,73.5,65.7,72.6,67.9,63.9,96,84,54,29.99,29.88,6,1,8,0.00
2013-6-18,82.2,71.3,65.4,70.1,64.7,61.6,90,81,57,29.99,29.86,5,1,10,0.00
2013-6-19,78.7,68.3,57.4,61.4,57.7,54.7,91,71,48,30.13,29.99,6,2,8,0.00
2013-6-20,82.8,70.6,57.2,64.3,59.5,53.7,91,70,46,30.21,30.13,6,1,9,0.00
2013-6-21,84.8,72.9,58.8,71.1,63.4,56.5,93,74,49,30.22,30.09,5,1,11,0.00
2013-6-22,83.7,72.8,65.4,73.6,67.5,63.1,93,84,67,30.16,30.06,6,2,9,0.01
2013-6-23,85.1,71.4,64.0,72.4,67.0,62.5,95,87,58,30.14,30.06,6,1,10,1.26
2013-6-24,81.8,73.0,64.8,72.8,68.2,63.3,96,86,67,30.16,30.03,5,1,8,0.00
2013-6-25,86.8,77.4,66.8,76.6,70.7,64.7,94,81,63,30.06,29.88,6,2,12,0.01
2013-6-26,82.3,71.0,66.1,74.4,67.6,64.3,95,90,75,29.95,29.77,6,2,11,1.61
2013-6-27,84.0,73.0,66.0,73.6,68.8,64.5,96,88,66,29.80,29.70,5,2,8,0.07
2013-6-28,82.0,72.3,63.6,69.5,65.4,61.0,94,80,51,29.70,29.60,7,3,21,0.06
2013-6-29,73.1,66.7,61.5,68.1,63.8,59.9,95,90,79,29.67,29.58,4,1,7,0.04
2013-6-30,74.4,67.3,62.0,68.1,64.1,60.6,96,90,75,29.85,29.66,4,1,5,0.44
2013-7-1,73.3,66.7,62.3,69.0,63.5,59.8,94,90,83,29.93,29.83,5,1,7,1.48
2013-7-2,78.8,70.0,64.0,69.3,65.3,62.2,96,86,67,30.02,29.92,7,2,10,0.03
2013-7-3,78.6,70.7,62.7,69.3,66.1,61.2,96,86,68,30.11,30.01,6,2,8,0.01
2013-7-4,69.6,68.3,67.4,67.3,66.5,65.9,95,94,91,30.16,30.07,6,2,7,0.29
2013-7-5,75.1,69.9,64.9,70.1,67.1,63.6,96,91,82,30.16,30.08,4,1,7,0.04
2013-7-6,73.4,68.8,66.5,69.3,66.9,64.7,96,94,87,30.13,30.05,6,1,6,0.37
2013-7-7,79.8,70.3,63.2,70.4,66.0,61.7,96,87,68,30.13,30.04,4,1,7,0.00
2013-7-8,83.1,75.6,68.3,74.8,69.9,65.4,92,83,73,30.14,30.04,5,2,7,0.00
2013-7-9,85.8,78.7,73.7,77.7,72.9,68.9,89,83,72,30.07,29.97,5,2,9,0.12
2013-7-10,85.9,77.8,69.5,78.1,72.5,67.5,94,84,74,29.99,29.83,7,2,14,0.05
2013-7-11,79.0,70.9,61.2,69.6,63.9,57.5,95,80,59,30.03,29.92,5,2,9,0.01
2013-7-12,78.6,67.3,56.8,63.3,59.1,55.1,95,77,53,30.12,30.03,5,1,7,0.00
2013-7-13,81.3,72.0,62.2,68.7,64.3,59.7,92,77,60,30.15,30.07,7,2,11,0.00
2013-7-14,87.7,77.8,67.4,77.6,70.5,64.4,91,79,65,30.21,30.13,7,2,10,0.00
2013-7-15,89.5,79.1,70.4,75.6,71.3,68.3,94,78,56,30.30,30.21,3,1,7,0.00
2013-7-16,89.8,77.9,68.8,74.5,71.0,67.3,96,81,56,30.33,30.27,3,0,5,0.00
2013-7-17,76.0,75.2,73.8,72.7,72.2,71.3,92,90,89,30.28,30.27,0,0,0,0.00
2013-7-20,75.4,71.0,68.5,69.5,67.8,66.7,94,90,82,29.93,29.87,3,1,6,0.00
2013-7-21,84.6,74.8,65.8,73.9,69.3,64.3,95,84,65,29.98,29.88,3,1,7,0.01
2013-7-22,79.8,72.7,69.0,72.8,69.5,66.9,94,90,76,29.91,29.77,4,1,6,0.09
2013-7-23,85.1,75.0,67.0,75.5,70.0,61.2,96,85,69,29.84,29.73,8,2,13,0.03
2013-7-24,74.8,66.5,56.5,62.9,58.8,53.9,92,77,61,30.02,29.84,4,2,7,0.00
2013-7-25,76.6,64.4,52.5,60.5,56.1,50.4,94,76,49,30.10,30.02,5,1,6,0.00
2013-7-26,77.9,66.5,53.3,63.7,58.8,51.7,96,78,55,30.11,29.98,4,1,7,0.00
2013-7-27,75.0,67.0,61.2,65.4,61.0,55.0,95,82,56,29.98,29.86,6,2,12,1.13
2013-7-28,69.6,61.1,50.0,57.0,52.7,48.1,94,75,56,30.07,29.93,6,2,11,0.00
2013-7-29,76.2,63.7,53.3,60.7,55.8,51.0,92,77,54,30.20,30.07,6,1,8,0.00
2013-7-30,75.7,65.6,52.9,66.4,59.8,51.5,96,83,59,30.24,30.12,4,1,6,0.00
2013-7-31,74.8,68.8,64.2,69.3,65.4,62.0,95,89,80,30.13,29.95,3,1,7,0.00
2013-8-1,78.9,70.5,61.4,67.2,62.9,57.4,95,79,49,30.01,29.93,4,1,11,0.00
2013-8-2,79.7,68.4,55.5,67.3,61.7,53.8,95,80,60,30.03,29.96,6,1,9,0.00
2013-8-3,78.9,71.3,66.4,70.8,65.7,60.7,94,83,62,30.05,29.96,4,1,7,0.08
2013-8-4,76.3,66.4,56.1,61.6,57.3,52.5,91,74,52,30.15,30.05,5,1,8,0.00
2013-8-5,77.9,66.1,53.5,63.0,58.0,51.8,96,77,50,30.14,29.97,3,1,6,0.00
2013-8-6,79.5,70.9,64.3,70.5,64.5,58.9,94,80,73,29.99,29.92,5,1,8,0.00
2013-8-7,83.0,74.4,67.2,74.9,70.5,65.5,96,88,73,29.94,29.87,4,1,9,0.00
2013-8-8,84.0,74.5,67.6,76.4,71.0,66.1,96,89,71,29.95,29.88,4,1,6,2.55
2013-8-9,81.0,71.9,67.6,72.5,69.0,66.3,96,91,71,30.03,29.90,4,1,6,0.34
2013-8-10,82.3,72.9,66.4,72.5,68.6,64.9,96,87,67,30.12,30.03,3,0,6,0.00
2013-8-11,83.0,73.1,63.8,72.4,66.7,62.6,96,82,56,30.10,30.04,4,1,8,0.01
2013-8-12,81.0,71.5,62.0,72.3,66.8,60.6,96,86,66,30.09,29.88,4,1,6,0.01
2013-8-13,75.3,68.8,56.7,69.4,62.2,51.2,95,80,63,30.07,29.86,7,2,9,0.00
2013-8-14,69.4,58.9,50.8,53.9,50.8,48.3,91,76,54,30.19,30.07,4,2,8,0.00
2013-8-15,71.9,63.7,48.3,59.7,54.7,46.9,96,74,57,30.20,30.11,5,1,7,0.00
2013-8-16,76.1,63.9,51.8,60.1,55.5,49.7,95,76,53,30.18,30.13,5,1,8,0.00
2013-8-17,79.9,66.6,55.6,64.1,58.5,53.0,92,77,52,30.21,30.13,6,1,8,0.00
2013-8-18,80.3,67.3,56.0,65.5,59.4,54.4,96,78,49,30.20,30.10,5,1,7,0.00
2013-8-19,82.1,68.7,54.5,69.2,60.6,53.1,96,78,50,30.16,30.07,3,0,5,0.00
2013-8-20,83.7,70.6,58.2,70.2,63.7,56.5,96,81,53,30.18,30.09,6,1,6,0.00
2013-8-21,84.9,74.0,63.8,73.8,68.5,62.0,95,84,65,30.16,30.05,5,1,6,0.00
2013-8-22,83.6,72.2,65.7,72.4,67.8,63.9,95,87,65,30.11,30.03,5,1,16,0.58
2013-8-23,82.5,70.5,64.0,70.3,66.0,62.4,96,87,62,30.15,30.05,3,1,5,0.13
2013-8-24,84.7,70.8,57.6,70.5,62.7,55.2,92,77,52,30.27,30.16,3,0,8,0.00
2013-8-25,84.1,70.2,56.8,67.2,61.0,55.1,96,76,44,30.34,30.23,3,1,5,0.00
2013-8-26,84.6,72.8,62.4,73.2,66.8,58.1,94,82,65,30.26,30.08,5,1,7,0.00
2013-8-27,85.2,75.2,69.7,76.0,71.2,67.6,95,87,71,30.09,29.96,4,1,7,0.00
2013-8-28,83.8,76.3,73.7,75.2,72.1,70.8,92,87,75,29.98,29.90,5,2,11,0.00
2013-8-29,81.2,72.4,67.5,72.9,69.6,65.1,95,91,70,30.03,29.95,1,0,4,0.00
2013-8-30,76.3,65.0,62.3,71.1,63.2,60.8,96,94,84,30.00,29.85,0,0,0,0.00
2013-8-31,72.7,72.1,71.5,69.7,69.5,69.2,93,92,90,29.84,29.82,0,0,1,0.02
2013-9-1,67.8,67.8,67.7,65.4,65.4,65.3,92,92,92,29.80,29.80,3,3,3,0.00
2013-9-4,55.9,53.5,51.2,54.2,52.0,49.8,96,95,94,30.14,30.08,1,0,5,0.00
2013-9-5,65.6,60.7,57.3,56.5,56.0,55.8,95,86,71,30.20,30.18,0,0,0,0.00
2013-9-6,64.8,58.4,54.3,55.9,51.1,49.9,87,77,64,30.25,30.12,3,1,5,0.00
2013-9-7,58.3,56.3,55.7,54.4,53.6,53.2,93,91,87,30.12,30.10,0,0,0,0.00
2013-9-13,53.1,50.7,48.3,50.8,47.7,44.4,92,90,87,30.11,30.03,0,0,1,0.00
2013-9-14,49.6,45.5,41.5,44.6,42.2,39.6,94,88,82,30.18,30.11,1,0,4,0.00
2013-9-15,43.7,43.7,43.7,42.1,42.1,42.1,94,94,94,30.15,30.15,0,0,0,0.00
2013-9-16,70.1,63.0,54.2,58.4,55.4,50.5,88,77,62,30.30,30.23,6,2,6,0.02
2013-9-17,54.1,53.9,53.7,50.7,50.3,50.1,89,88,87,30.32,30.30,2,1,3,0.00
2013-9-23,67.0,58.1,44.4,50.1,47.7,42.2,93,70,52,30.15,30.07,6,3,8,0.00
2013-9-24,71.7,62.4,45.4,59.3,53.9,43.8,94,74,61,30.11,29.94,6,2,9,0.00
2013-9-25,74.9,62.1,53.1,58.3,53.5,50.0,92,75,48,29.95,29.88,7,1,8,0.00
2013-9-26,75.0,60.0,46.1,60.2,53.4,44.4,96,81,56,30.09,29.94,7,1,9,0.00
2013-9-27,78.7,62.1,47.7,60.1,51.8,45.4,94,73,38,30.19,30.09,5,1,8,0.00
2013-9-28,79.0,62.3,47.8,60.1,54.1,46.0,96,77,49,30.20,30.07,5,1,10,0.00
2013-9-29,63.4,59.9,55.5,59.7,57.5,53.2,95,92,84,30.07,30.02,3,1,7,0.40
2013-9-30,71.8,62.6,57.5,64.9,60.4,56.1,96,93,79,30.05,29.97,4,1,6,0.02
2013-10-1,75.3,64.4,55.9,65.5,60.2,54.8,97,87,67,30.10,30.02,5,1,9,0.01
2013-10-2,73.3,65.9,59.8,68.4,63.4,58.3,96,92,84,30.13,30.06,2,0,3,0.00
2013-10-3,79.4,70.3,65.3,69.0,65.9,62.7,96,87,65,30.09,30.00,6,1,8,0.03
2013-10-4,81.7,71.4,65.1,71.1,66.3,63.0,93,84,65,30.08,30.02,5,1,10,0.00
2013-10-5,77.1,70.3,65.5,70.8,67.0,63.7,95,90,81,30.06,29.93,5,2,9,0.17
2013-10-6,68.1,60.9,49.5,65.9,59.1,44.6,96,94,83,29.94,29.73,8,3,13,2.20
2013-10-7,59.0,50.2,44.6,47.9,44.8,42.0,94,82,64,30.20,29.86,6,2,11,0.55
2013-10-8,66.0,52.6,40.3,51.1,44.5,39.0,96,77,47,30.32,30.20,8,2,12,0.06
2013-10-9,71.1,56.0,43.7,53.0,47.4,41.4,93,75,46,30.27,30.18,6,1,10,0.00
2013-10-10,73.8,55.6,41.0,52.6,45.7,39.6,96,74,36,30.23,30.11,4,0,6,0.00
2013-10-11,78.3,59.2,44.6,56.6,50.0,43.2,96,75,42,30.14,30.04,4,0,5,0.00
2013-10-12,77.3,60.6,47.7,60.5,53.7,46.3,96,81,47,30.13,30.05,5,1,6,0.00
2013-10-13,72.4,61.6,52.8,59.2,52.9,43.6,94,75,44,30.33,30.13,5,1,7,0.00
2013-10-14,69.7,56.0,44.8,52.4,46.1,41.4,89,71,43,30.36,30.20,6,2,9,0.00
2013-10-15,71.7,59.2,49.7,63.7,56.3,45.9,96,90,75,30.21,29.96,5,2,7,0.08
2013-10-16,63.5,58.8,45.8,60.8,54.0,43.6,95,85,60,29.99,29.90,6,2,10,0.12
2013-10-17,52.2,46.3,39.9,48.3,43.5,38.0,95,90,81,30.02,29.92,6,1,9,0.12
2013-10-18,63.4,51.5,43.0,49.4,44.3,41.1,93,78,50,30.07,29.97,7,2,12,0.00
2013-10-19,50.6,44.8,40.5,45.8,40.8,36.8,94,86,70,30.04,29.87,6,2,10,0.25
2013-10-20,60.8,48.4,39.5,44.5,40.1,35.8,88,74,52,30.07,30.01,7,3,13,0.00
2013-10-21,62.9,52.3,42.7,48.6,43.7,38.6,91,74,54,30.03,29.92,8,3,13,0.02
2013-10-22,51.9,41.7,30.1,43.2,32.1,28.0,92,71,41,30.08,29.88,6,2,8,0.04
2013-10-23,45.1,39.5,34.9,38.8,34.7,29.6,94,84,59,30.09,29.78,7,3,12,0.13
2013-10-24,41.2,36.9,34.1,36.1,33.5,32.0,93,87,73,30.33,30.09,5,2,9,0.09
2013-10-25,47.2,36.1,28.0,33.5,27.9,25.0,92,74,44,30.50,30.33,6,2,8,0.00
2013-10-26,53.2,41.7,32.7,40.1,32.1,26.3,78,69,57,30.33,29.98,9,4,13,0.00
2013-10-27,56.8,41.8,30.1,39.7,33.9,28.6,95,76,45,30.16,30.08,4,1,9,0.00
2013-10-28,61.2,43.0,29.3,40.9,33.8,27.5,95,74,36,30.35,30.13,5,1,8,0.00
2013-10-29,53.5,45.6,37.0,46.0,39.9,33.2,91,81,69,30.40,30.24,4,1,6,0.01
2013-10-30,61.6,55.6,48.7,60.4,54.3,45.7,96,95,89,30.24,30.01,4,1,5,0.00
2013-10-31,64.3,61.1,55.6,62.2,58.3,53.3,96,91,83,30.01,29.35,12,5,21,1.25
2013-11-1,61.3,53.9,46.6,53.9,46.8,41.6,93,78,53,29.78,29.43,9,5,21,0.00
2013-11-2,52.5,47.8,39.8,43.0,39.8,35.5,90,74,55,30.14,29.77,7,4,12,0.00
2013-11-3,51.4,42.0,34.6,41.6,36.5,33.1,95,82,57,30.40,30.13,5,1,6,0.00
2013-11-4,55.1,46.0,37.8,43.5,38.6,33.6,88,76,61,30.44,30.33,8,3,12,0.00
2013-11-5,58.7,53.7,47.6,46.6,43.8,40.2,91,70,58,30.43,30.23,6,2,7,0.02
2013-11-6,60.0,54.7,42.4,56.4,48.7,40.4,94,81,67,30.23,30.00,7,4,22,0.42
2013-11-7,46.3,41.2,36.6,40.4,32.8,26.7,93,74,47,30.31,30.08,7,4,11,0.03
2013-11-8,49.9,38.1,28.3,33.5,30.1,26.3,93,74,46,30.43,30.26,7,2,10,0.00
2013-11-9,59.6,47.9,35.3,41.6,35.1,28.1,77,62,46,30.28,30.06,12,4,18,0.00
2013-11-10,49.4,42.3,29.2,41.2,32.7,26.5,91,69,52,30.39,30.14,7,3,13,0.00
2013-11-11,53.0,41.3,28.4,43.3,33.0,26.0,93,75,38,30.36,30.14,9,3,13,0.14
2013-11-12,34.1,29.0,24.3,31.1,23.1,19.7,93,79,59,30.69,30.32,10,5,13,0.03
2013-11-13,38.7,28.2,18.9,22.1,19.2,15.7,92,72,40,30.70,30.50,6,2,9,0.00
2013-11-14,53.0,43.9,30.4,24.2,22.0,18.3,69,43,28,30.39,30.19,7,4,14,0.00
2013-11-15,48.7,43.6,34.8,42.8,30.0,21.7,88,60,44,30.20,30.13,5,2,11,0.00
2013-11-16,58.6,51.0,45.5,55.4,48.3,42.2,95,91,88,30.16,29.91,8,4,13,0.00
2013-11-17,64.5,58.3,49.6,61.4,54.3,40.8,95,87,65,29.89,29.50,13,7,16,1.44
2013-11-18,49.7,44.4,35.2,41.4,34.8,27.9,86,70,49,30.24,29.81,12,6,19,0.00
2013-11-19,40.7,34.2,28.4,31.2,27.8,25.0,88,77,66,30.40,30.23,5,2,8,0.00
2013-11-20,48.7,44.3,41.1,34.3,33.0,31.5,73,64,55,30.32,30.27,8,4,10,0.00
2013-11-21,55.0,47.2,40.4,46.5,40.6,32.7,92,78,65,30.35,30.22,6,2,9,0.07
2013-11-22,51.9,46.2,36.6,50.4,43.6,31.7,95,91,80,30.42,30.19,9,4,12,0.07
2013-11-23,36.3,28.7,21.4,31.2,22.1,11.8,93,77,59,30.63,30.41,10,4,16,0.00
2013-11-24,27.0,20.6,17.2,15.5,13.3,11.5,86,74,54,30.76,30.59,7,2,8,0.00
2013-11-25,35.3,27.1,16.6,27.6,17.7,12.7,87,69,45,30.61,30.25,8,3,11,0.00
2013-11-26,33.8,31.9,30.6,29.2,27.7,25.5,92,85,77,30.27,29.99,6,2,8,0.00
2013-11-27,31.9,25.6,19.6,28.2,19.6,12.7,88,78,69,30.37,29.99,8,5,14,0.00
2013-11-28,35.2,24.7,16.7,17.8,14.9,12.1,84,67,46,30.51,30.34,7,2,11,0.00
2013-11-29,38.8,28.2,18.9,24.0,19.9,15.6,89,72,49,30.70,30.51,5,2,7,0.00
2013-11-30,51.0,35.1,24.2,31.3,26.1,20.3,87,71,45,30.57,30.22,6,2,12,0.00
2013-12-1,50.2,42.3,34.0,38.4,32.4,25.9,90,69,58,30.22,30.00,7,2,14,0.00
2013-12-2,47.7,39.7,32.5,40.2,35.8,30.3,93,86,73,30.00,29.83,6,1,6,0.02
2013-12-3,50.2,41.5,31.5,46.2,39.5,30.2,96,93,85,29.92,29.82,5,2,7,0.01
2013-12-4,59.0,52.3,44.3,56.4,50.4,42.3,96,93,88,29.89,29.72,6,3,9,0.01
2013-12-5,63.1,45.1,28.8,58.1,41.5,26.5,93,88,82,30.20,29.77,7,4,11,0.14
2013-12-6,28.8,25.8,24.7,26.8,24.1,22.8,94,93,91,30.47,30.17,7,4,9,0.00
2013-12-7,25.1,19.5,13.7,23.4,16.5,10.7,94,88,78,30.67,30.46,5,2,7,0.16
2013-12-8,29.9,22.7,17.0,28.5,20.2,13.5,95,90,84,30.61,30.08,10,4,11,0.00
2013-12-9,31.0,26.8,21.0,29.7,23.8,16.6,95,88,80,30.30,30.06,7,4,12,0.00
2013-12-10,27.1,20.7,17.2,17.2,14.0,10.4,92,76,50,30.42,30.23,10,3,14,0.01
2013-12-11,33.4,20.3,9.2,22.3,14.7,6.6,92,80,59,30.60,30.36,9,3,15,0.05
2013-12-12,22.7,13.6,0.0,9.5,3.5,-3.5,89,66,36,30.63,30.43,6,2,10,0.00
2013-12-13,35.8,27.1,17.9,29.3,17.9,7.1,92,68,57,30.43,30.21,7,2,12,0.06
2013-12-14,35.7,32.6,28.2,34.7,31.3,27.0,96,95,92,30.22,29.76,9,4,12,0.08
2013-12-15,28.2,25.6,24.2,26.9,22.1,19.1,95,86,75,30.18,29.95,10,6,18,0.00
2013-12-16,34.4,27.6,25.0,31.8,25.8,22.6,95,93,90,30.18,30.05,5,1,7,0.04
2013-12-17,35.5,28.2,25.2,32.0,25.4,22.9,94,89,83,30.23,30.04,8,4,12,0.01
2013-12-18,37.0,27.6,19.0,24.5,19.1,15.4,93,72,47,30.34,30.10,7,4,13,0.02
2013-12-19,49.2,43.0,37.1,41.0,32.7,21.9,84,67,53,30.12,29.98,7,4,16,0.01
2013-12-20,59.1,53.2,47.0,56.5,48.1,40.2,93,83,71,29.99,29.83,8,5,17,0.00
2013-12-21,63.8,58.7,51.8,61.6,57.1,50.4,96,94,91,29.83,29.45,9,4,15,2.72
2013-12-22,60.9,48.3,34.6,59.5,45.8,32.0,95,91,84,30.08,29.49,12,6,16,0.34
2013-12-23,34.5,28.3,23.4,32.1,24.2,18.6,92,84,77,30.46,30.08,6,4,10,0.01
2013-12-24,23.8,16.2,11.8,19.9,11.1,7.0,90,80,69,30.63,30.44,6,3,11,0.00
2013-12-25,30.9,24.4,17.0,25.1,17.6,13.2,86,76,63,30.57,30.27,8,4,12,0.00
2013-12-26,37.5,31.8,27.4,26.8,24.3,21.4,85,74,53,30.43,30.25,9,4,15,0.00
2013-12-27,47.2,37.1,30.1,33.2,28.3,24.3,79,71,56,30.46,30.32,6,3,10,0.00
2013-12-28,52.4,41.3,35.2,35.8,31.7,29.2,80,69,48,30.32,30.04,6,3,11,0.00
2013-12-29,42.4,37.1,30.2,38.5,33.7,28.2,94,88,68,30.08,29.84,7,3,15,0.25
2013-12-30,29.5,23.9,20.0,26.9,19.2,15.2,90,82,72,30.31,30.10,6,3,9,0.00
2013-12-31,31.6,25.8,21.5,22.5,18.0,13.8,82,72,61,30.44,30.24,9,4,20,0.00
2014-1-1,43.5,31.8,22.0,32.2,25.8,19.3,91,79,59,30.34,30.06,5,1,7,0.00
2014-1-2,31.7,20.5,8.3,28.6,17.8,3.4,94,89,80,30.36,29.89,9,4,14,0.00